| time (UTC) | temp C | wind direction | speed KPH | gust KPH | rain 1hr cm | rain 24hr cm | rain mn cm | humidity % | barometer mb |
| 20260906163617 | 37 | 299 | 6.4 | 8.0 | 0.00 | 0.00 | 0.00 | 44 | 1017.3 |
| 20260906162619 | 37 | 60 | 6.4 | 8.0 | 0.00 | 0.00 | 0.00 | 45 | 1017.4 |
| 20260906161640 | 36 | 287 | 6.4 | 9.7 | 0.00 | 0.00 | 0.00 | 46 | 1017.4 |
| 20260906160619 | 35 | 266 | 6.4 | 8.0 | 0.00 | 0.00 | 0.00 | 48 | 1017.5 |
| 20260906155621 | 35 | 275 | 6.4 | 8.0 | 0.00 | 0.00 | 0.00 | 48 | 1017.5 |
| 20260906154642 | 35 | 264 | 4.8 | 6.4 | 0.00 | 0.00 | 0.00 | 50 | 1017.5 |
| 20260906153618 | 35 | 280 | 6.4 | 8.0 | 0.00 | 0.00 | 0.00 | 51 | 1017.5 |
| 20260906152619 | 34 | 191 | 3.2 | 4.8 | 0.00 | 0.00 | 0.00 | 52 | 1017.5 |
| 20260906151621 | 33 | 250 | 4.8 | 6.4 | 0.00 | 0.00 | 0.00 | 53 | 1017.3 |
| 20260906150622 | 33 | 296 | 3.2 | 4.8 | 0.00 | 0.00 | 0.00 | 56 | 1017.4 |
| 20260906145625 | 32 | 293 | 4.8 | 4.8 | 0.00 | 0.00 | 0.00 | 58 | 1017.4 |
| 20260906144626 | 32 | 278 | 3.2 | 4.8 | 0.00 | 0.00 | 0.00 | 59 | 1017.3 |
| 20260906143627 | 31 | 277 | 3.2 | 4.8 | 0.00 | 0.00 | 0.00 | 61 | 1017.4 |
| 20260906142629 | 31 | 79 | 3.2 | 4.8 | 0.00 | 0.00 | 0.00 | 63 | 1017.4 |
| 20260906141631 | 30 | 241 | 3.2 | 4.8 | 0.00 | 0.00 | 0.00 | 66 | 1017.5 |
| 20260906140627 | 30 | 134 | 3.2 | 4.8 | 0.00 | 0.00 | 0.00 | 66 | 1017.6 |
| 20260906135616 | 31 | 213 | 3.2 | 4.8 | 0.00 | 0.00 | 0.00 | 64 | 1017.6 |
| 20260906134619 | 30 | 222 | 3.2 | 3.2 | 0.00 | 0.00 | 0.00 | 66 | 1017.5 |
| 20260906133659 | 29 | 331 | 3.2 | 4.8 | 0.00 | 0.00 | 0.00 | 69 | 1017.3 |
| 20260906132620 | 28 | 330 | 3.2 | 4.8 | 0.00 | 0.00 | 0.00 | 72 | 1017.3 |
| 20260906131622 | 27 | 0.0 | 0.0 | 0.00 | 0.00 | 0.00 | 76 | 1017.0 | |
| 20260906130624 | 25 | 0.0 | 0.0 | 0.00 | 0.00 | 0.00 | 84 | 1017.0 | |
| 20260906125626 | 23 | 0.0 | 0.0 | 0.00 | 0.00 | 0.00 | 88 | 1017.0 | |
| 20260906124647 | 22 | 0.0 | 0.0 | 0.00 | 0.00 | 0.00 | 91 | 1016.9 | |
| 20260906123644 | 22 | 0.0 | 0.0 | 0.00 | 0.00 | 0.00 | 91 | 1016.8 | |
| 20260906122625 | 21 | 0.0 | 0.0 | 0.00 | 0.00 | 0.00 | 93 | 1016.8 | |
| 20260906121625 | 21 | 0.0 | 0.0 | 0.00 | 0.00 | 0.00 | 92 | 1016.7 | |
| 20260906120627 | 21 | 0.0 | 0.0 | 0.00 | 0.00 | 0.00 | 92 | 1016.4 | |
| 20260906115649 | 21 | 113 | 3.2 | 3.2 | 0.00 | 0.00 | 0.00 | 93 | 1016.3 |
| 20260906114624 | 21 | 338 | 1.6 | 1.6 | 0.00 | 0.00 | 0.00 | 93 | 1016.3 |
| 20260906113620 | 21 | 0.0 | 0.0 | 0.00 | 0.00 | 0.00 | 91 | 1016.3 | |
| 20260906112615 | 21 | 0.0 | 0.0 | 0.00 | 0.00 | 0.00 | 91 | 1016.1 | |
| 20260906111617 | 22 | 315 | 3.2 | 3.2 | 0.00 | 0.00 | 0.00 | 91 | 1016.1 |
| 20260906110639 | 22 | 135 | 1.6 | 3.2 | 0.00 | 0.00 | 0.00 | 90 | 1016.1 |
| 20260906105640 | 22 | 23 | 1.6 | 3.2 | 0.00 | 0.00 | 0.00 | 90 | 1016.0 |
| 20260906104642 | 22 | 0.0 | 0.0 | 0.00 | 0.00 | 0.00 | 90 | 1016.0 | |
| 20260906103624 | 22 | 0.0 | 0.0 | 0.00 | 0.00 | 0.00 | 90 | 1016.0 | |
| 20260906102705 | 22 | 0.0 | 0.0 | 0.00 | 0.00 | 0.00 | 88 | 1015.9 | |
| 20260906101627 | 22 | 0.0 | 0.0 | 0.00 | 0.00 | 0.00 | 89 | 1016.0 | |
| 20260906100623 | 22 | 0.0 | 0.0 | 0.00 | 0.00 | 0.00 | 88 | 1015.9 | |
| 20260906095625 | 22 | 0.0 | 0.0 | 0.00 | 0.00 | 0.00 | 88 | 1015.9 | |
| 20260906094707 | 22 | 128 | 3.2 | 3.2 | 0.00 | 0.00 | 0.00 | 87 | 1015.9 |
| 20260906093628 | 22 | 110 | 1.6 | 4.8 | 0.00 | 0.00 | 0.00 | 87 | 1015.8 |
| 20260906092624 | 22 | 0.0 | 0.0 | 0.00 | 0.00 | 0.00 | 87 | 1015.8 | |
| 20260906091620 | 22 | 0.0 | 0.0 | 0.00 | 0.00 | 0.00 | 87 | 1015.6 | |
| 20260906090632 | 22 | 0.0 | 0.0 | 0.00 | 0.00 | 0.00 | 86 | 1015.6 | |
| 20260906085628 | 23 | 332 | 3.2 | 4.8 | 0.00 | 0.00 | 0.00 | 85 | 1015.6 |
| 20260906084645 | 23 | 270 | 1.6 | 3.2 | 0.00 | 0.00 | 0.00 | 85 | 1015.6 |
| 20260906083626 | 23 | 291 | 3.2 | 3.2 | 0.00 | 0.00 | 0.00 | 84 | 1015.6 |
| 20260906082628 | 23 | 0.0 | 0.0 | 0.00 | 0.00 | 0.00 | 83 | 1015.6 | |
| 20260906081630 | 23 | 270 | 1.6 | 3.2 | 0.00 | 0.00 | 0.00 | 83 | 1015.6 |
| 20260906080631 | 23 | 135 | 1.6 | 3.2 | 0.00 | 0.00 | 0.00 | 81 | 1015.6 |
| 20260906075628 | 23 | 152 | 3.2 | 3.2 | 0.00 | 0.00 | 0.00 | 82 | 1015.6 |
| 20260906074629 | 23 | 144 | 3.2 | 4.8 | 0.00 | 0.00 | 0.00 | 81 | 1015.6 |
| 20260906073631 | 23 | 0.0 | 0.0 | 0.00 | 0.00 | 0.00 | 80 | 1015.8 | |
| 20260906072632 | 24 | 330 | 4.8 | 4.8 | 0.00 | 0.00 | 0.00 | 80 | 1015.6 |
| 20260906071616 | 24 | 270 | 1.6 | 3.2 | 0.00 | 0.00 | 0.00 | 79 | 1015.6 |
| 20260906070617 | 24 | 0.0 | 0.0 | 0.00 | 0.00 | 0.00 | 78 | 1015.8 | |
| 20260906065619 | 25 | 0.0 | 0.0 | 0.00 | 0.00 | 0.00 | 77 | 1015.8 | |
| 20260906064621 | 25 | 248 | 1.6 | 1.6 | 0.00 | 0.00 | 0.00 | 77 | 1015.8 |
| 20260906063622 | 25 | 113 | 3.2 | 4.8 | 0.00 | 0.00 | 0.00 | 76 | 1015.6 |
| 20260906062624 | 25 | 113 | 3.2 | 4.8 | 0.00 | 0.00 | 0.00 | 76 | 1015.9 |
| 20260906061625 | 25 | 293 | 1.6 | 1.6 | 0.00 | 0.00 | 0.00 | 75 | 1015.8 |
| 20260906055649 | 25 | 0.0 | 0.0 | 0.00 | 0.00 | 0.00 | 74 | 1015.6 | |
| 20260906054630 | 25 | 45 | 1.6 | 3.2 | 0.00 | 0.00 | 0.00 | 73 | 1015.6 |
| 20260906053712 | 26 | 158 | 0.0 | 1.6 | 0.00 | 0.00 | 0.00 | 72 | 1015.6 |
| 20260906052633 | 26 | 158 | 3.2 | 3.2 | 0.00 | 0.00 | 0.00 | 72 | 1015.6 |
| 20260906051616 | 26 | 285 | 3.2 | 3.2 | 0.00 | 0.00 | 0.00 | 70 | 1015.4 |
| 20260906050638 | 27 | 270 | 0.0 | 1.6 | 0.00 | 0.00 | 0.00 | 67 | 1015.4 |
| 20260906045619 | 27 | 270 | 3.2 | 4.8 | 0.00 | 0.00 | 0.00 | 65 | 1015.4 |
| 20260906044619 | 28 | 0.0 | 0.0 | 0.00 | 0.00 | 0.00 | 63 | 1015.4 | |
| 20260906043615 | 28 | 115 | 3.2 | 4.8 | 0.00 | 0.00 | 0.00 | 62 | 1015.4 |
| 20260906042623 | 28 | 115 | 3.2 | 4.8 | 0.00 | 0.00 | 0.00 | 61 | 1015.4 |
| 20260906041624 | 28 | 113 | 3.2 | 4.8 | 0.00 | 0.00 | 0.00 | 61 | 1015.4 |
| 20260906040626 | 28 | 70 | 1.6 | 4.8 | 0.00 | 0.00 | 0.00 | 61 | 1015.4 |
| 20260906035627 | 28 | 86 | 1.6 | 3.2 | 0.00 | 0.00 | 0.00 | 61 | 1015.4 |
| 20260906034629 | 28 | 142 | 3.2 | 4.8 | 0.00 | 0.00 | 0.00 | 60 | 1015.4 |
| 20260906033632 | 29 | 113 | 3.2 | 3.2 | 0.00 | 0.00 | 0.00 | 59 | 1015.2 |
| 20260906032652 | 29 | 146 | 4.8 | 6.4 | 0.00 | 0.00 | 0.00 | 59 | 1015.2 |
| 20260906031616 | 29 | 8 | 3.2 | 4.8 | 0.00 | 0.00 | 0.00 | 58 | 1015.1 |
| 20260906030617 | 29 | 2 | 4.8 | 4.8 | 0.00 | 0.00 | 0.00 | 57 | 1014.9 |
| 20260906025639 | 29 | 67 | 1.6 | 4.8 | 0.00 | 0.00 | 0.00 | 57 | 1014.9 |
| 20260906024620 | 30 | 126 | 3.2 | 3.2 | 0.00 | 0.00 | 0.00 | 57 | 1014.9 |
| 20260906023622 | 30 | 16 | 3.2 | 4.8 | 0.00 | 0.00 | 0.00 | 56 | 1014.9 |
| 20260906022617 | 30 | 69 | 3.2 | 4.8 | 0.00 | 0.00 | 0.00 | 55 | 1014.7 |
| 20260906021645 | 30 | 118 | 3.2 | 3.2 | 0.00 | 0.00 | 0.00 | 54 | 1014.4 |
| 20260906020626 | 31 | 156 | 1.6 | 3.2 | 0.00 | 0.00 | 0.00 | 52 | 1014.3 |
| 20260906015628 | 31 | 42 | 6.4 | 8.0 | 0.00 | 0.00 | 0.00 | 51 | 1014.2 |
| 20260906014629 | 32 | 103 | 3.2 | 4.8 | 0.00 | 0.00 | 0.00 | 50 | 1014.1 |
| 20260906013631 | 32 | 160 | 3.2 | 3.2 | 0.00 | 0.00 | 0.00 | 48 | 1014.1 |
| 20260906012632 | 32 | 60 | 3.2 | 4.8 | 0.00 | 0.00 | 0.00 | 47 | 1013.9 |
| 20260906011615 | 33 | 94 | 4.8 | 8.0 | 0.00 | 0.00 | 0.00 | 46 | 1013.8 |
| 20260906010617 | 33 | 85 | 6.4 | 12.9 | 0.00 | 0.00 | 0.00 | 46 | 1013.7 |
| 20260906005618 | 33 | 45 | 3.2 | 3.2 | 0.00 | 0.00 | 0.00 | 47 | 1013.6 |
| 20260906004619 | 34 | 0.0 | 0.0 | 0.00 | 0.00 | 0.00 | 46 | 1013.6 | |
| 20260906003621 | 35 | 83 | 3.2 | 3.2 | 0.00 | 0.00 | 0.00 | 44 | 1013.6 |
| 20260906002623 | 36 | 119 | 1.6 | 3.2 | 0.00 | 0.00 | 0.00 | 41 | 1013.6 |
| 20260906001618 | 37 | 68 | 0.0 | 3.2 | 0.00 | 0.00 | 0.00 | 41 | 1013.6 |
| 20260906000641 | 37 | 113 | 3.2 | 3.2 | 0.00 | 0.00 | 0.00 | 40 | 1013.5 |
| 20260905235622 | 38 | 135 | 1.6 | 3.2 | 0.00 | 0.00 | 0.00 | 38 | 1013.5 |
| 20260905234623 | 40 | 329 | 3.2 | 3.2 | 0.00 | 0.00 | 0.00 | 35 | 1013.5 |
| 20260905233625 | 41 | 295 | 4.8 | 6.4 | 0.00 | 0.00 | 0.00 | 33 | 1013.6 |
| 20260905232627 | 41 | 310 | 4.8 | 4.8 | 0.00 | 0.00 | 0.00 | 32 | 1013.6 |
| 20260905231648 | 42 | 276 | 1.6 | 4.8 | 0.00 | 0.00 | 0.00 | 30 | 1013.5 |
| 20260905230630 | 42 | 309 | 6.4 | 8.0 | 0.00 | 0.00 | 0.00 | 31 | 1013.4 |
| 20260905225631 | 42 | 17 | 4.8 | 6.4 | 0.00 | 0.00 | 0.00 | 31 | 1013.4 |
| 20260905224633 | 41 | 72 | 3.2 | 6.4 | 0.00 | 0.00 | 0.00 | 32 | 1013.4 |
| 20260905223616 | 41 | 297 | 1.6 | 3.2 | 0.00 | 0.00 | 0.00 | 32 | 1013.3 |
| 20260905222638 | 41 | 7 | 4.8 | 6.4 | 0.00 | 0.00 | 0.00 | 33 | 1013.3 |
| 20260905221700 | 40 | 248 | 3.2 | 4.8 | 0.00 | 0.00 | 0.00 | 34 | 1013.5 |
| 20260905220621 | 40 | 343 | 4.8 | 6.4 | 0.00 | 0.00 | 0.00 | 35 | 1013.6 |
| 20260905215617 | 40 | 97 | 3.2 | 4.8 | 0.00 | 0.00 | 0.00 | 35 | 1013.6 |
| 20260905214620 | 40 | 83 | 4.8 | 6.4 | 0.00 | 0.00 | 0.00 | 34 | 1013.7 |
| 20260905213621 | 41 | 264 | 6.4 | 9.7 | 0.00 | 0.00 | 0.00 | 33 | 1013.7 |
| 20260905212627 | 40 | 286 | 4.8 | 4.8 | 0.00 | 0.00 | 0.00 | 34 | 1013.9 |
| 20260905211629 | 40 | 121 | 6.4 | 9.7 | 0.00 | 0.00 | 0.00 | 35 | 1014.1 |
| 20260905210651 | 41 | 47 | 6.4 | 8.0 | 0.00 | 0.00 | 0.00 | 33 | 1014.3 |
| 20260905205632 | 40 | 38 | 8.0 | 9.7 | 0.00 | 0.00 | 0.00 | 35 | 1014.4 |
| 20260905204646 | 40 | 54 | 4.8 | 6.4 | 0.00 | 0.00 | 0.00 | 36 | 1014.5 |
| 20260905203635 | 41 | 103 | 4.8 | 8.0 | 0.00 | 0.00 | 0.00 | 35 | 1014.6 |
| 20260905202617 | 40 | 119 | 4.8 | 6.4 | 0.00 | 0.00 | 0.00 | 37 | 1014.9 |
| 20260905201639 | 40 | 98 | 8.0 | 9.7 | 0.00 | 0.00 | 0.00 | 36 | 1014.9 |
| 20260905200620 | 40 | 118 | 6.4 | 9.7 | 0.00 | 0.00 | 0.00 | 36 | 1015.1 |
| 20260905195622 | 39 | 31 | 4.8 | 8.0 | 0.00 | 0.00 | 0.00 | 38 | 1015.3 |
| 20260905194624 | 40 | 71 | 6.4 | 8.0 | 0.00 | 0.00 | 0.00 | 37 | 1015.4 |
| 20260905193625 | 40 | 144 | 9.7 | 12.9 | 0.00 | 0.00 | 0.00 | 37 | 1015.4 |
| 20260905192626 | 40 | 70 | 9.7 | 12.9 | 0.00 | 0.00 | 0.00 | 38 | 1015.6 |
| 20260905191627 | 40 | 33 | 8.0 | 12.9 | 0.00 | 0.00 | 0.00 | 37 | 1015.8 |
| 20260905190629 | 40 | 13 | 9.7 | 11.3 | 0.00 | 0.00 | 0.00 | 38 | 1016.1 |
| 20260905185630 | 39 | 222 | 4.8 | 8.0 | 0.00 | 0.00 | 0.00 | 38 | 1016.2 |
| 20260905184652 | 39 | 35 | 8.0 | 9.7 | 0.00 | 0.00 | 0.00 | 38 | 1016.3 |
| 20260905183616 | 38 | 341 | 11.3 | 12.9 | 0.00 | 0.00 | 0.00 | 39 | 1016.5 |
| 20260905182617 | 37 | 344 | 8.0 | 9.7 | 0.00 | 0.00 | 0.00 | 42 | 1016.7 |
| 20260905181639 | 38 | 342 | 6.4 | 8.0 | 0.00 | 0.00 | 0.00 | 42 | 1016.8 |
| 20260905180615 | 38 | 285 | 6.4 | 9.7 | 0.00 | 0.00 | 0.00 | 43 | 1016.9 |
| 20260905175622 | 38 | 276 | 8.0 | 9.7 | 0.00 | 0.00 | 0.00 | 41 | 1017.0 |
| 20260905174624 | 36 | 28 | 8.0 | 9.7 | 0.00 | 0.00 | 0.00 | 45 | 1017.2 |
| 20260905173645 | 38 | 59 | 8.0 | 12.9 | 0.00 | 0.00 | 0.00 | 42 | 1017.1 |
| 20260905172627 | 37 | 236 | 8.0 | 9.7 | 0.00 | 0.00 | 0.00 | 44 | 1017.4 |
| 20260905171628 | 37 | 284 | 8.0 | 9.7 | 0.00 | 0.00 | 0.00 | 44 | 1017.6 |
| 20260905170630 | 38 | 307 | 9.7 | 16.1 | 0.00 | 0.00 | 0.00 | 44 | 1017.6 |
| 20260905165651 | 37 | 64 | 3.2 | 4.8 | 0.00 | 0.00 | 0.00 | 45 | 1017.7 |
| 20260905164615 | 37 | 326 | 11.3 | 12.9 | 0.00 | 0.00 | 0.00 | 46 | 1017.8 |